Date,TemperatureHighF,TemperatureAvgF,TemperatureLowF,DewpointHighF,DewpointAvgF,DewpointLowF,HumidityHigh,HumidityAvg,HumidityLow,PressureMaxIn,PressureMinIn,WindSpeedMaxMPH,WindSpeedAvgMPH,GustSpeedMaxMPH,PrecipitationSumIn
2013-1-1,37.7,33.7,26.3,36.4,31.0,21.4,95,90,82,30.27,30.08,13,4,14,0.00
2013-1-2,33.2,26.9,20.5,21.9,18.1,14.7,85,70,48,30.35,30.25,9,2,12,0.00
2013-1-3,40.2,30.6,21.5,28.6,22.6,15.7,84,72,58,30.48,30.30,7,0,9,0.00
2013-1-4,45.4,34.5,25.7,29.2,25.9,22.6,91,72,47,30.51,30.43,9,1,11,0.00
2013-1-5,44.1,36.9,29.2,31.7,29.0,25.6,88,74,56,30.44,30.26,8,1,8,0.00
2013-1-6,44.1,36.6,33.0,35.1,30.2,25.7,92,78,65,30.43,30.20,12,2,14,0.00
2013-1-7,33.0,33.0,33.0,26.6,26.6,26.6,77,77,77,30.43,30.43,6,6,10,0.00
2013-1-8,33.0,33.0,33.0,26.6,26.6,26.6,77,77,77,30.43,30.43,6,6,10,0.00
2013-1-9,33.0,33.0,33.0,26.6,26.6,26.6,77,77,77,30.43,30.43,6,6,10,0.00
2013-1-10,33.0,33.0,33.0,26.6,26.6,26.6,77,77,77,30.43,30.43,6,6,10,0.00
2013-1-11,33.0,33.0,33.0,26.6,26.6,26.6,77,77,77,30.43,30.43,6,6,10,0.00
2013-1-12,33.0,33.0,33.0,26.6,26.6,26.6,77,77,77,30.43,30.43,6,6,10,0.00
2013-1-13,33.0,33.0,33.0,26.6,26.6,26.6,77,77,77,30.43,30.43,6,6,10,0.00
2013-1-14,33.0,33.0,33.0,26.6,26.6,26.6,77,77,77,30.43,30.43,6,6,10,0.00
2013-1-15,33.0,33.0,33.0,26.6,26.6,26.6,77,77,77,30.43,30.43,6,6,10,0.00
2013-1-16,33.0,33.0,33.0,26.6,26.6,26.6,77,77,77,30.43,30.43,6,6,10,0.00
2013-1-17,33.0,33.0,33.0,26.6,26.6,26.6,77,77,77,30.43,30.43,6,6,10,0.00
2013-1-18,33.0,33.0,33.0,26.6,26.6,26.6,77,77,77,30.43,30.43,6,6,10,0.00
2013-1-19,33.0,33.0,33.0,26.6,26.6,26.6,77,77,77,30.43,30.43,6,6,10,0.00
2013-1-20,33.0,33.0,33.0,26.6,26.6,26.6,77,77,77,30.43,30.43,6,6,10,0.00
2013-1-21,33.0,33.0,33.0,26.6,26.6,26.6,77,77,77,30.43,30.43,6,6,10,0.00
2013-1-22,33.0,33.0,33.0,26.6,26.6,26.6,77,77,77,30.43,30.43,6,6,10,0.00
2013-1-23,33.0,33.0,33.0,26.6,26.6,26.6,77,77,77,30.43,30.43,6,6,10,0.00
2013-1-24,33.0,33.0,33.0,26.6,26.6,26.6,77,77,77,30.43,30.43,6,6,10,0.00
2013-1-25,33.0,33.0,33.0,26.6,26.6,26.6,77,77,77,30.43,30.43,6,6,10,0.00
2013-1-26,33.0,33.0,33.0,26.6,26.6,26.6,77,77,77,30.43,30.43,6,6,10,0.00
2013-1-27,33.0,33.0,33.0,26.6,26.6,26.6,77,77,77,30.43,30.43,6,6,10,0.00
2013-1-28,33.0,33.0,33.0,26.6,26.6,26.6,77,77,77,30.43,30.43,6,6,10,0.00
2013-1-29,33.0,33.0,33.0,26.6,26.6,26.6,77,77,77,30.43,30.43,6,6,10,0.00
2013-1-30,33.0,33.0,33.0,26.6,26.6,26.6,77,77,77,30.43,30.43,6,6,10,0.00
2013-1-31,33.0,33.0,33.0,26.6,26.6,26.6,77,77,77,30.43,30.43,6,6,10,0.00
2013-2-1,33.0,33.0,33.0,26.6,26.6,26.6,77,77,77,30.43,30.43,6,6,10,0.00
2013-2-2,33.0,33.0,33.0,26.6,26.6,26.6,77,77,77,30.43,30.43,6,6,10,0.00
2013-2-3,33.0,33.0,33.0,26.6,26.6,26.6,77,77,77,30.43,30.43,6,6,10,0.00
2013-2-4,33.0,33.0,33.0,26.6,26.6,26.6,77,77,77,30.43,30.43,6,6,10,0.00
2013-2-5,33.0,33.0,33.0,26.6,26.6,26.6,77,77,77,30.43,30.43,6,6,10,0.00
2013-2-6,33.0,33.0,33.0,26.6,26.6,26.6,77,77,77,30.43,30.43,6,6,10,0.00
2013-2-7,33.0,33.0,33.0,26.6,26.6,26.6,77,77,77,30.43,30.43,6,6,10,0.00
2013-2-8,33.0,33.0,33.0,26.6,26.6,26.6,77,77,77,30.43,30.43,6,6,10,0.00
2013-2-9,33.0,33.0,33.0,26.6,26.6,26.6,77,77,77,30.43,30.43,6,6,10,0.00
2013-2-10,33.0,33.0,33.0,26.6,26.6,26.6,77,77,77,30.43,30.43,6,6,10,0.00
2013-2-11,33.0,33.0,33.0,26.6,26.6,26.6,77,77,77,30.43,30.43,6,6,10,0.00
2013-2-12,33.0,33.0,33.0,26.6,26.6,26.6,77,77,77,30.43,30.43,6,6,10,0.00
2013-2-13,33.0,33.0,33.0,26.6,26.6,26.6,77,77,77,30.43,30.43,6,6,10,0.00
2013-2-14,33.0,33.0,33.0,26.6,26.6,26.6,77,77,77,30.43,30.43,6,6,10,0.00
2013-2-15,33.0,33.0,33.0,26.6,26.6,26.6,77,77,77,30.43,30.43,6,6,10,0.00
2013-2-16,33.0,33.0,33.0,26.6,26.6,26.6,77,77,77,30.43,30.43,6,6,10,0.00
2013-2-17,33.0,33.0,33.0,26.6,26.6,26.6,77,77,77,30.43,30.43,6,6,10,0.00
2013-2-18,33.0,33.0,33.0,26.6,26.6,26.6,77,77,77,30.43,30.43,6,6,10,0.00
2013-2-19,33.0,33.0,33.0,26.6,26.6,26.6,77,77,77,30.43,30.43,6,6,10,0.00
2013-2-20,33.0,33.0,33.0,26.6,26.6,26.6,77,77,77,30.43,30.43,6,6,10,0.00
2013-2-21,33.0,33.0,33.0,26.6,26.6,26.6,77,77,77,30.43,30.43,6,6,10,0.00
2013-2-22,33.0,33.0,33.0,26.6,26.6,26.6,77,77,77,30.43,30.43,6,6,10,0.00
2013-2-23,33.0,33.0,33.0,26.6,26.6,26.6,77,77,77,30.43,30.43,6,6,10,0.00
2013-2-24,33.0,33.0,33.0,26.6,26.6,26.6,77,77,77,30.43,30.43,6,6,10,0.00
2013-2-25,56.2,41.7,33.0,41.3,29.3,26.6,77,64,34,30.43,29.49,21,8,23,9.53
2013-2-26,49.8,44.9,38.6,48.3,41.0,34.3,96,86,74,29.71,29.38,20,3,20,0.51
2013-2-27,39.5,37.4,34.5,34.4,31.9,28.4,88,81,66,29.94,29.71,10,2,12,0.02
2013-2-28,38.9,35.4,33.0,32.2,29.7,26.6,90,80,69,30.13,29.93,11,1,11,0.02
2013-3-1,39.2,34.2,31.6,35.1,31.6,29.0,94,90,77,30.16,30.08,14,1,15,0.17
2013-3-2,33.2,31.1,29.6,29.2,26.2,18.5,93,82,61,30.25,30.12,13,2,15,0.00
2013-3-3,41.2,33.4,23.4,24.0,19.7,16.0,83,58,36,30.25,30.12,9,1,10,0.01
2013-3-4,57.2,46.7,37.5,39.4,28.5,20.9,69,50,35,30.15,29.82,20,5,21,0.01
2013-3-5,49.1,40.9,32.8,46.6,35.9,21.2,95,83,58,30.09,29.78,12,2,15,0.34
2013-3-6,41.8,36.5,33.1,29.4,26.5,23.4,74,67,57,30.38,30.09,14,3,17,0.00
2013-3-7,42.1,36.1,30.9,31.0,27.6,24.6,80,71,58,30.46,30.36,13,4,14,0.00
2013-3-8,54.3,42.5,32.3,36.8,30.0,26.6,84,63,36,30.49,30.28,11,3,13,0.00
2013-3-9,63.4,52.6,41.8,37.5,33.1,30.5,70,49,31,30.28,29.97,17,4,18,0.00
2013-3-10,67.2,58.9,50.1,54.3,44.6,36.8,96,62,39,29.98,29.73,28,5,29,0.80
2013-3-11,53.4,43.3,38.0,52.0,37.4,30.1,95,80,66,30.04,29.75,14,2,17,0.00
2013-3-12,52.9,41.7,29.8,30.8,27.6,20.5,87,60,33,30.20,30.03,12,1,12,0.00
2013-3-13,44.5,38.0,33.3,29.3,22.2,17.9,66,53,38,30.45,30.20,15,2,15,0.00
2013-3-14,43.4,36.7,28.5,36.0,27.5,22.0,89,70,48,30.46,30.19,11,2,11,0.10
2013-3-15,76.3,56.9,37.7,50.9,41.8,29.2,84,60,37,30.19,29.79,19,2,22,0.00
2013-3-16,72.0,60.7,45.1,52.2,47.1,39.1,81,62,49,29.98,29.75,19,4,19,0.00
2013-3-17,45.3,43.0,40.2,42.7,40.3,37.8,94,90,79,30.07,29.74,18,6,20,0.62
2013-3-18,52.3,46.1,40.1,49.2,42.7,37.3,96,88,73,30.02,29.68,20,2,20,0.73
2013-3-19,54.7,43.7,35.9,37.4,25.6,11.5,92,54,20,30.23,30.02,12,2,12,0.00
2013-3-20,45.3,38.5,30.3,31.5,24.5,17.0,75,57,43,30.23,30.11,16,3,18,0.00
2013-3-21,40.2,33.0,22.5,21.7,16.3,11.9,76,51,35,30.16,30.01,12,2,13,0.00
2013-3-22,42.4,38.2,34.1,27.8,23.5,19.5,63,55,49,30.09,30.01,12,5,12,0.00
2013-3-23,54.5,47.1,40.6,43.8,33.8,26.1,87,60,49,30.05,29.73,14,4,16,0.10
2013-3-24,47.3,41.0,33.7,44.1,37.8,28.8,95,88,81,29.78,29.48,19,4,20,0.09
2013-3-25,38.2,34.4,32.6,30.6,28.1,25.6,91,78,67,30.20,29.78,15,3,16,0.00
2013-3-26,42.4,36.4,30.8,30.3,27.6,24.8,92,72,51,30.40,30.20,11,1,12,0.02
2013-3-27,49.1,40.5,30.9,34.7,27.6,24.4,86,61,44,30.46,30.34,12,1,12,0.00
2013-3-28,57.6,48.8,40.5,40.8,32.0,27.8,67,53,37,30.42,30.28,8,2,9,0.00
2013-3-29,55.2,49.8,44.8,48.2,43.8,36.3,92,80,59,30.31,30.20,12,2,13,0.69
2013-3-30,53.8,49.3,46.2,48.7,46.0,44.1,96,89,74,30.23,29.93,11,2,11,0.48
2013-3-31,63.7,53.4,48.3,51.5,48.8,44.6,96,85,57,29.98,29.88,6,0,6,0.01
2013-4-1,55.7,49.2,43.8,46.5,36.0,27.1,92,62,36,30.21,29.92,15,3,17,0.00
2013-4-2,47.3,43.4,38.2,29.9,23.7,17.0,64,47,30,30.34,30.21,14,2,14,0.00
2013-4-3,52.5,46.0,38.3,28.9,23.8,18.3,57,42,29,30.38,30.23,20,6,22,0.00
2013-4-4,48.4,44.9,40.9,43.8,33.3,21.5,90,66,37,30.23,30.04,13,2,14,0.17
2013-4-5,70.8,54.2,38.3,46.3,38.2,31.8,95,61,27,30.17,30.05,8,1,9,0.00
2013-4-6,74.8,61.7,48.3,46.0,41.8,37.1,89,53,26,30.11,29.89,20,3,21,0.00
2013-4-7,74.2,65.9,61.0,56.5,50.5,41.8,71,58,46,30.00,29.92,18,3,18,0.00
2013-4-8,76.3,68.7,61.2,58.4,54.1,50.3,71,60,49,29.95,29.87,21,3,22,0.00
2013-4-9,79.0,70.8,62.5,63.7,60.3,54.1,81,70,58,30.03,29.89,18,3,22,0.00
2013-4-10,84.8,76.4,68.5,65.3,63.1,59.6,80,64,48,29.94,29.69,21,4,22,0.01
2013-4-11,72.8,55.3,48.1,64.2,52.6,43.1,95,91,70,29.74,29.60,9,0,10,2.81
2013-4-12,59.9,49.5,37.9,42.7,37.8,34.4,90,66,47,30.05,29.74,16,2,16,0.00
2013-4-13,66.3,52.6,39.5,46.3,38.5,32.1,78,60,40,30.12,29.97,8,1,9,0.00
2013-4-14,75.6,63.4,53.7,51.6,46.5,42.8,74,56,34,29.97,29.78,29,4,29,0.00
2013-4-15,79.8,67.7,57.9,59.8,55.9,51.0,83,67,46,29.95,29.83,15,3,15,0.00
2013-4-16,82.3,72.9,66.2,69.4,65.2,59.8,88,77,63,30.05,29.90,19,3,20,0.00
2013-4-17,87.0,76.1,66.0,70.2,65.8,62.9,93,72,49,30.08,29.83,18,2,21,0.00
2013-4-18,81.8,73.6,47.7,67.1,62.4,45.3,93,70,52,29.84,29.58,27,5,29,1.95
2013-4-19,48.4,44.0,40.3,45.2,34.7,31.0,93,70,54,30.11,29.67,13,1,13,0.23
2013-4-20,61.2,49.9,35.2,39.1,34.1,29.4,89,58,31,30.34,30.11,16,1,16,0.00
2013-4-21,65.5,54.8,43.2,40.7,34.0,26.9,65,47,26,30.43,30.25,14,3,14,0.00
2013-4-22,73.7,61.8,50.4,52.8,43.4,33.5,66,52,35,30.28,30.05,11,2,12,0.00
2013-4-23,74.8,65.9,57.2,58.6,54.0,45.5,77,66,53,30.10,29.86,21,3,21,0.00
2013-4-24,67.1,47.4,42.1,58.0,41.2,35.1,94,80,57,30.31,29.85,12,1,13,0.51
2013-4-25,67.5,52.5,37.8,46.4,39.4,35.3,94,64,33,30.40,30.30,15,1,18,0.00
2013-4-26,54.2,52.2,50.8,49.8,44.9,39.4,92,77,60,30.46,30.27,16,2,16,0.64
2013-4-27,59.7,55.5,50.8,58.2,53.8,48.7,96,94,90,30.32,29.90,16,3,18,0.95
2013-4-28,61.6,57.7,54.1,58.2,54.7,52.2,96,90,77,29.97,29.88,6,0,7,0.01
2013-4-29,71.2,61.7,52.4,59.4,54.6,51.0,96,79,57,30.03,29.88,11,1,11,0.00
2013-4-30,82.9,68.4,56.0,58.9,55.6,49.9,93,67,35,30.00,29.90,7,1,8,0.00
2013-5-1,80.0,69.7,60.1,64.8,59.0,55.3,86,70,52,30.09,29.98,12,1,12,0.00
2013-5-2,76.2,67.1,60.6,61.7,59.3,56.7,91,77,54,30.15,30.01,10,0,10,0.02
2013-5-3,74.7,62.3,43.3,62.1,55.4,41.4,94,80,55,30.02,29.75,16,2,20,0.83
2013-5-4,52.1,46.4,42.3,45.0,41.9,39.8,95,85,65,29.99,29.86,8,1,9,0.01
2013-5-5,60.8,52.8,45.4,54.0,48.1,42.4,94,84,69,29.97,29.83,8,0,11,0.01
2013-5-6,64.6,57.5,53.1,57.1,54.2,50.1,95,89,74,29.93,29.82,11,1,11,0.02
2013-5-7,74.0,63.1,54.3,60.2,56.9,53.2,96,82,57,30.01,29.92,7,0,7,0.01
2013-5-8,81.5,68.7,56.0,61.7,57.4,54.4,95,70,41,30.05,29.95,7,0,7,0.00
2013-5-9,81.7,71.9,62.5,64.3,61.1,58.6,94,70,50,30.04,29.91,20,1,20,0.00
2013-5-10,78.5,68.5,62.4,65.9,62.7,58.8,95,83,60,29.94,29.82,9,0,9,0.50
2013-5-11,72.1,61.4,55.6,58.7,52.5,40.3,94,74,50,30.11,29.94,14,1,14,0.02
2013-5-12,63.7,56.2,46.1,42.1,35.9,28.3,74,48,30,30.22,30.11,13,1,13,0.00
2013-5-13,70.8,59.6,46.9,52.7,42.4,32.5,92,58,28,30.26,30.13,7,0,8,0.00
2013-5-14,87.8,72.3,56.3,61.0,55.3,46.1,81,57,36,30.13,29.91,16,1,17,0.00
2013-5-15,87.1,76.0,65.3,60.8,57.3,52.8,71,53,34,30.03,29.90,12,1,14,0.00
2013-5-16,83.8,73.4,66.7,64.7,60.4,55.6,82,64,47,29.99,29.89,11,0,13,0.04
2013-5-17,69.7,67.1,64.8,65.7,63.8,59.4,95,89,76,29.99,29.92,11,2,11,0.27
2013-5-18,79.5,71.6,66.6,70.2,66.8,64.7,97,86,64,30.00,29.91,4,0,4,0.00
2013-5-19,90.5,78.3,70.0,75.4,70.8,66.8,96,79,52,29.93,29.83,11,1,12,0.00
2013-5-20,88.0,78.5,69.9,72.4,70.1,67.3,92,76,56,29.95,29.80,14,1,15,0.00
2013-5-21,80.1,70.5,65.6,70.1,66.2,63.3,95,87,67,29.93,29.78,17,1,20,1.50
2013-5-22,80.5,69.9,63.4,66.7,63.1,59.3,96,80,52,29.83,29.73,13,1,13,0.21
2013-5-23,75.5,68.0,57.8,62.2,57.5,50.8,89,70,52,30.14,29.83,14,1,16,0.00
2013-5-24,71.0,60.9,50.9,52.9,48.1,42.5,86,65,39,30.35,30.14,10,2,12,0.00
2013-5-25,76.2,66.0,54.5,59.2,51.4,46.1,82,61,40,30.35,30.14,8,1,8,0.00
2013-5-26,80.9,71.0,62.7,64.5,58.4,51.9,83,65,48,30.21,30.07,8,1,9,0.00
2013-5-27,86.5,75.3,62.1,65.8,61.3,55.8,85,63,41,30.08,29.91,15,1,17,0.00
2013-5-28,88.3,78.7,69.9,69.4,64.2,56.1,82,63,44,30.02,29.92,16,1,21,0.00
2013-5-29,87.3,78.0,66.6,69.2,64.2,57.3,81,64,49,30.06,29.92,13,1,13,0.00
2013-5-30,85.0,77.5,68.1,73.1,68.6,65.0,94,75,59,30.03,29.90,23,2,23,0.68
2013-5-31,79.7,74.0,68.9,74.1,70.1,66.3,95,88,80,29.98,29.84,17,2,20,0.54
2013-6-1,77.3,69.8,65.3,71.9,66.9,63.6,96,91,71,29.96,29.76,17,1,17,5.35
2013-6-2,80.7,70.4,64.6,66.4,63.1,59.8,97,79,53,29.96,29.88,8,1,8,0.01
2013-6-3,76.0,67.6,61.6,61.1,58.9,54.9,91,75,53,30.05,29.94,10,1,11,0.00
2013-6-4,81.3,70.8,60.0,64.9,59.4,54.4,85,69,50,30.06,29.95,9,1,9,0.00
2013-6-5,86.4,76.5,68.1,69.4,65.1,60.1,88,69,47,29.97,29.78,14,1,14,0.00
2013-6-6,82.7,73.5,65.7,68.8,66.3,63.9,96,80,55,29.82,29.73,17,1,17,2.94
2013-6-7,80.1,73.0,67.9,66.1,63.6,60.8,83,73,54,29.86,29.75,10,1,10,0.00
2013-6-8,79.4,71.7,61.6,66.7,62.8,59.8,95,75,52,29.98,29.85,6,0,6,0.00
2013-6-9,75.6,69.6,67.2,70.5,66.1,62.1,96,89,78,29.99,29.80,8,1,9,1.64
2013-6-10,85.5,73.1,64.8,72.0,67.0,63.6,97,83,54,29.91,29.81,10,0,10,0.07
2013-6-11,95.9,79.6,67.2,78.1,71.3,66.0,97,77,52,29.99,29.88,7,1,7,0.00
2013-6-12,95.5,86.0,76.4,78.0,74.3,71.2,85,69,53,30.00,29.80,12,1,13,0.00
2013-6-13,86.5,79.8,71.2,75.1,69.1,61.9,82,70,57,29.94,29.76,12,1,14,0.00
2013-6-14,83.7,74.7,65.3,66.1,60.5,56.1,88,62,45,30.05,29.92,11,2,11,0.00
2013-6-15,85.3,76.7,67.7,69.5,66.3,60.5,94,72,49,30.09,29.95,10,1,10,0.00
2013-6-16,93.4,79.8,72.2,74.9,70.2,65.4,86,73,51,30.02,29.91,13,0,13,0.00
2013-6-17,89.0,75.5,68.5,75.0,70.7,66.3,94,86,59,29.93,29.85,13,1,13,1.29
2013-6-18,86.0,75.3,67.6,71.5,67.2,64.6,94,77,57,29.95,29.82,14,2,14,0.03
2013-6-19,85.7,74.5,67.2,72.4,67.4,62.9,91,79,58,30.03,29.92,5,0,5,0.02
2013-6-20,90.5,80.4,72.2,74.4,70.8,66.3,92,74,48,30.11,30.02,7,1,8,0.00
2013-6-21,91.4,82.2,72.9,74.9,72.3,68.3,87,73,54,30.15,30.05,10,1,10,0.00
2013-6-22,88.4,81.1,72.6,73.4,71.2,67.8,88,73,55,30.13,30.02,11,1,11,0.00
2013-6-23,87.5,79.8,72.1,72.2,70.2,67.3,91,74,57,30.09,29.98,9,1,9,0.00
2013-6-24,83.5,77.8,75.3,75.8,72.4,69.8,93,84,71,30.11,30.00,18,1,19,0.00
2013-6-25,94.0,84.1,74.5,77.3,74.5,71.5,91,74,54,30.03,29.86,10,1,12,0.00
2013-6-26,92.5,82.7,74.6,76.6,73.1,69.4,94,74,58,29.92,29.72,11,1,17,1.03
2013-6-27,97.7,83.8,71.2,79.7,73.3,69.5,96,73,45,29.84,29.75,12,0,12,0.01
2013-6-28,94.3,82.1,72.5,74.8,68.8,58.7,86,66,41,29.81,29.63,7,0,7,0.00
2013-6-29,89.3,77.1,65.0,68.4,63.0,58.9,86,63,45,29.68,29.59,7,0,16,0.00
2013-6-30,78.8,68.7,62.3,69.0,64.2,60.2,94,86,64,29.80,29.66,10,0,15,0.08
2013-7-1,74.8,69.2,66.9,67.2,65.8,63.8,93,89,76,29.88,29.77,12,1,12,0.06
2013-7-2,79.3,69.8,62.2,67.7,64.4,59.8,96,84,63,30.01,29.85,10,0,12,0.00
2013-7-3,81.1,70.5,60.9,67.2,63.4,59.3,96,80,57,30.09,30.00,6,0,6,0.00
2013-7-4,78.8,73.2,69.2,71.0,68.2,65.4,94,85,71,30.06,29.99,15,3,15,0.00
2013-7-5,81.6,74.0,69.5,71.6,68.7,66.8,93,84,67,30.08,29.99,9,1,11,0.00
2013-7-6,84.1,73.9,67.1,73.2,69.1,63.6,96,86,61,30.08,29.96,12,2,15,1.33
2013-7-7,87.5,77.1,65.6,74.6,69.7,63.9,95,79,54,30.08,30.01,9,1,10,0.00
2013-7-8,87.8,79.9,71.1,76.7,73.6,69.3,95,82,66,30.13,30.02,8,1,8,0.00
2013-7-9,95.3,84.6,73.2,78.0,75.2,71.4,94,75,53,30.08,29.95,8,0,8,0.00
2013-7-10,94.2,84.1,78.4,79.6,74.9,72.5,84,74,59,29.98,29.84,9,0,9,0.00
2013-7-11,85.4,79.3,73.0,75.5,69.9,61.0,93,74,54,29.98,29.89,12,1,12,0.00
2013-7-12,83.8,75.9,68.3,65.7,62.0,56.7,80,63,45,30.05,29.96,15,3,15,0.00
2013-7-13,84.5,76.9,65.7,68.7,63.5,58.8,87,64,46,30.04,29.96,11,2,11,0.00
2013-7-14,86.8,78.6,71.8,74.3,71.0,67.1,89,78,63,30.11,30.00,10,2,11,0.00
2013-7-15,86.5,80.9,75.6,76.2,73.8,71.3,90,79,67,30.21,30.10,10,2,10,0.00
2013-7-16,93.7,84.9,75.9,77.4,73.8,70.1,86,70,51,30.29,30.20,5,0,5,0.00
2013-7-17,96.5,86.1,76.7,79.1,75.9,73.2,94,73,49,30.29,30.14,4,0,5,0.00
2013-7-18,88.9,82.2,76.2,79.2,74.9,69.2,92,79,57,30.16,30.01,18,1,18,0.00
2013-7-19,93.6,82.7,71.6,75.4,72.8,69.5,95,74,50,30.05,29.89,10,0,10,0.00
2013-7-20,94.5,82.4,71.8,75.5,72.8,69.3,94,74,51,29.93,29.79,13,1,15,0.30
2013-7-21,85.5,75.9,71.6,77.2,72.0,69.0,96,88,71,29.94,29.83,19,1,19,0.45
2013-7-22,88.9,78.5,71.8,76.6,73.6,70.7,97,86,65,29.87,29.79,10,0,11,0.72
2013-7-23,92.8,80.4,69.7,75.4,72.8,66.1,95,79,52,29.91,29.74,19,1,25,1.27
2013-7-24,81.9,74.3,67.9,70.1,66.6,62.4,96,78,58,29.96,29.80,12,1,12,0.00
2013-7-25,81.0,73.4,65.5,64.4,62.3,59.9,87,69,51,30.06,29.94,8,1,8,0.00
2013-7-26,84.2,74.6,65.7,68.1,64.8,60.5,90,73,52,30.05,29.93,7,1,8,0.00
2013-7-27,84.5,74.4,67.7,70.4,66.1,57.9,93,76,58,29.98,29.86,11,1,11,0.05
2013-7-28,79.2,70.8,63.0,60.1,56.5,52.6,80,62,45,30.05,29.96,11,1,11,0.00
2013-7-29,81.7,72.5,62.6,66.6,62.0,56.6,89,71,53,30.16,30.05,6,0,6,0.00
2013-7-30,72.7,71.1,66.4,71.1,67.1,62.8,95,88,75,30.15,30.02,9,1,9,0.61
2013-7-31,85.3,76.7,70.9,76.5,72.4,69.2,96,87,73,30.03,29.91,8,1,10,0.00
2013-8-1,85.7,77.0,70.4,72.6,69.1,66.7,94,78,55,30.04,29.95,8,1,8,0.00
2013-8-2,85.5,77.1,67.5,71.4,67.6,63.7,96,74,51,30.02,29.94,7,1,7,0.00
2013-8-3,83.5,75.9,71.0,76.2,71.9,67.7,96,88,77,30.04,29.92,8,0,8,1.81
2013-8-4,83.0,76.3,71.2,73.0,65.5,60.8,95,71,51,30.13,30.03,10,2,10,0.00
2013-8-5,77.7,71.9,68.9,68.1,64.1,59.8,88,77,61,30.09,29.92,8,1,9,0.11
2013-8-6,84.2,76.6,71.0,76.1,72.8,67.8,95,88,74,29.95,29.87,6,0,6,0.03
2013-8-7,82.9,76.5,71.6,76.8,73.7,70.1,96,91,78,29.95,29.86,10,0,10,0.14
2013-8-8,84.0,77.8,73.2,78.2,74.7,72.0,97,90,78,29.94,29.86,5,0,6,0.01
2013-8-9,91.3,78.1,72.4,79.0,74.4,71.2,97,89,65,30.01,29.89,13,0,14,0.50
2013-8-10,82.4,76.9,74.3,75.9,73.9,72.2,96,91,77,30.09,29.99,7,0,8,0.14
2013-8-11,86.0,79.1,73.1,76.3,74.0,71.9,97,85,68,30.10,30.01,4,0,4,0.00
2013-8-12,87.5,77.2,72.0,77.8,73.9,70.5,96,90,71,30.05,29.88,11,0,13,0.49
2013-8-13,84.5,76.1,70.0,73.8,69.9,63.5,97,82,53,30.02,29.89,10,1,10,0.00
2013-8-14,74.4,68.2,61.6,64.8,56.6,53.0,84,67,49,30.13,30.02,16,3,16,0.00
2013-8-15,77.5,69.1,60.8,61.2,57.3,54.5,85,67,49,30.10,30.02,12,3,13,0.00
2013-8-16,76.7,70.7,64.9,66.5,62.7,58.2,87,76,65,30.08,30.02,10,2,11,0.04
2013-8-17,80.2,70.8,66.2,70.9,66.2,62.4,95,86,67,30.13,30.02,15,2,16,1.22
2013-8-18,80.8,71.7,65.5,71.3,67.9,63.6,96,88,71,30.14,30.05,5,0,5,0.06
2013-8-19,85.4,75.9,68.3,72.8,69.9,67.1,97,83,58,30.11,30.00,6,0,6,0.00
2013-8-20,87.7,78.5,71.0,74.2,71.5,69.1,95,80,59,30.09,30.00,10,0,11,0.00
2013-8-21,87.7,79.5,72.4,76.3,73.1,70.5,96,82,60,30.12,30.02,6,0,6,0.00
2013-8-22,89.6,81.1,72.0,78.2,73.5,70.5,96,79,57,30.10,29.98,4,0,4,0.00
2013-8-23,89.1,78.7,72.4,76.2,73.0,70.5,95,83,59,30.05,29.98,14,1,15,0.01
2013-8-24,86.7,79.9,73.7,74.5,71.6,68.4,95,77,58,30.16,30.05,9,2,9,0.00
2013-8-25,84.8,79.2,72.7,75.3,71.8,65.8,90,78,70,30.25,30.16,10,1,10,0.00
2013-8-26,90.0,79.0,71.1,76.0,72.2,67.7,91,81,62,30.24,30.09,7,0,7,0.00
2013-8-27,92.2,79.9,70.5,76.1,71.8,66.4,90,77,58,30.11,30.00,6,0,7,0.00
2013-8-28,96.3,82.6,72.2,74.3,71.4,68.5,89,71,44,30.03,29.96,6,0,6,0.00
2013-8-29,95.3,82.9,72.5,77.6,73.8,69.2,91,75,50,30.00,29.91,5,0,5,0.00
2013-8-30,97.6,84.7,74.5,78.3,74.8,71.5,93,74,45,29.95,29.84,4,0,4,0.00
2013-8-31,96.5,85.2,76.4,78.2,75.6,72.7,89,74,53,29.87,29.74,0,0,0,0.00
2013-9-1,85.5,76.5,69.6,75.6,71.9,67.2,96,86,70,29.87,29.74,22,1,23,1.40
2013-9-2,86.3,77.1,70.3,78.2,72.2,66.4,95,85,71,29.89,29.81,8,0,9,0.19
2013-9-3,84.1,75.8,68.6,69.0,65.9,62.8,87,73,50,30.03,29.89,7,1,7,0.00
2013-9-4,83.0,74.3,66.7,66.8,62.9,60.3,83,69,50,30.13,30.03,6,1,6,0.00
2013-9-5,83.8,75.2,67.0,69.5,66.0,63.1,94,75,55,30.17,30.09,5,1,6,0.00
2013-9-6,86.5,77.5,70.2,73.5,68.9,66.2,94,76,56,30.15,30.03,6,0,6,0.00
2013-9-7,91.5,79.1,69.2,73.3,71.1,68.0,97,78,50,30.06,29.93,5,0,6,0.00
2013-9-8,86.8,79.7,71.0,77.5,72.9,68.0,92,80,63,29.97,29.88,4,0,4,0.00
2013-9-9,93.3,82.7,76.6,79.2,75.3,70.9,90,79,55,29.99,29.91,9,1,9,0.00
2013-9-10,87.4,81.0,76.1,78.3,74.4,71.8,91,81,63,30.12,29.99,3,0,3,0.00
2013-9-11,89.2,78.3,72.6,78.6,72.9,69.7,94,84,66,30.14,30.03,0,0,0,0.00
2013-9-12,87.6,80.2,72.0,76.6,71.5,63.7,94,76,61,30.02,29.89,0,0,0,0.00
2013-9-13,75.1,69.8,63.7,63.9,57.7,52.8,81,66,51,30.04,29.95,0,0,0,0.00
2013-9-14,72.9,65.1,58.6,56.8,52.3,48.3,80,64,46,30.13,30.03,0,0,0,0.00
2013-9-15,83.2,70.0,60.0,61.3,58.0,54.4,91,68,41,30.09,30.03,0,0,0,0.00
2013-9-16,75.3,69.6,64.5,66.6,62.6,57.0,89,79,71,30.17,30.05,0,0,0,0.00
2013-9-17,81.1,71.8,63.6,67.7,64.3,60.8,92,78,59,30.19,30.06,0,0,0,0.00
2013-9-18,81.2,74.7,70.1,72.8,69.5,65.7,92,84,73,30.11,30.00,0,0,0,0.00
2013-9-19,88.1,77.4,70.7,74.6,71.2,67.9,94,82,64,30.07,29.93,0,0,0,0.00
2013-9-20,83.8,73.2,68.5,72.9,68.9,66.3,96,87,68,29.96,29.79,0,0,0,2.70
2013-9-21,72.6,66.4,60.4,67.8,56.6,50.9,96,73,48,29.89,29.78,0,0,0,0.08
2013-9-22,73.5,65.9,59.3,57.7,54.7,52.1,86,68,49,29.97,29.88,0,0,0,0.00
2013-9-23,75.4,67.0,59.1,61.9,57.3,53.6,85,72,53,30.01,29.91,0,0,0,0.00
2013-9-24,80.7,70.2,62.6,68.6,64.3,59.1,95,82,61,29.95,29.79,0,0,0,0.42
2013-9-25,79.5,71.1,65.1,69.6,66.9,63.3,97,87,66,29.85,29.77,8,0,8,0.00
2013-9-26,81.6,72.8,66.6,68.0,66.0,62.0,96,81,59,30.00,29.84,7,1,7,0.00
2013-9-27,79.4,70.3,62.5,66.5,61.4,57.3,91,75,49,30.11,30.00,8,0,9,0.00
2013-9-28,81.3,71.3,64.8,64.4,61.6,59.3,89,73,48,30.13,30.02,12,1,13,0.00
2013-9-29,67.3,64.2,62.0,62.9,60.9,59.3,96,90,77,30.06,29.97,10,1,11,2.41
2013-9-30,71.4,67.1,63.9,65.3,64.2,62.7,97,90,80,30.00,29.94,11,1,13,0.01
2013-10-1,78.0,71.0,66.7,70.9,67.6,64.0,96,89,77,30.06,29.97,8,1,9,0.00
2013-10-2,80.5,72.1,68.7,74.3,70.1,67.5,97,93,80,30.09,30.01,6,0,6,0.65
2013-10-3,82.3,74.5,70.1,72.0,68.8,66.7,96,83,62,30.05,29.94,8,1,8,0.01
2013-10-4,80.6,74.2,67.9,74.4,70.2,66.0,95,88,78,30.05,29.96,8,1,9,0.00
2013-10-5,83.4,75.2,69.7,74.5,71.4,67.6,96,89,71,30.00,29.83,7,0,8,0.00
2013-10-6,69.7,60.8,54.8,67.3,59.3,53.4,97,95,89,29.90,29.80,9,0,11,0.00
2013-10-7,65.0,58.1,46.4,54.4,49.7,44.5,95,75,59,30.14,29.94,11,1,11,0.00
2013-10-8,68.0,61.3,53.6,52.5,50.0,45.6,87,68,46,30.20,30.10,17,4,17,0.00
2013-10-9,70.7,60.6,57.1,62.9,54.7,50.3,87,81,73,30.17,30.09,7,1,7,0.00
2013-10-10,76.3,71.2,65.9,67.5,65.5,63.3,96,83,67,30.14,30.01,4,0,4,0.00
2013-10-11,77.1,68.5,62.5,66.7,62.5,59.5,94,82,61,30.06,29.96,6,1,6,0.00
2013-10-12,75.7,68.1,62.4,68.3,64.3,60.7,95,88,75,30.12,29.99,7,0,7,0.00
2013-10-13,74.8,67.3,61.5,65.9,57.7,47.3,96,73,53,30.28,30.12,8,1,9,0.00
2013-10-14,72.2,64.1,56.7,63.4,54.7,47.1,87,72,58,30.26,30.08,9,2,10,0.00
2013-10-15,71.7,66.8,64.0,65.9,63.8,61.4,95,90,78,30.08,29.93,13,1,13,0.00
2013-10-16,66.0,58.7,54.6,64.6,54.0,51.3,96,84,71,30.01,29.92,9,0,9,0.00
2013-10-17,55.8,52.6,50.0,53.8,48.6,46.7,93,86,80,30.01,29.94,9,1,9,0.00
2013-10-18,68.0,57.4,46.0,54.3,49.7,44.6,95,77,51,30.07,29.94,6,0,6,0.00
2013-10-19,57.2,50.6,43.5,52.2,45.4,40.2,94,83,61,30.06,29.89,9,0,10,0.00
2013-10-20,63.6,51.5,40.9,46.4,42.9,38.5,92,74,47,30.11,30.00,14,1,14,0.00
2013-10-21,69.2,55.4,43.1,53.2,47.4,39.8,92,76,51,30.05,29.96,10,0,11,0.00
2013-10-22,58.9,51.8,46.3,48.1,40.9,35.5,91,68,46,30.08,29.85,11,1,13,0.00
2013-10-23,51.2,46.2,42.0,45.4,36.6,33.2,91,70,53,30.14,29.90,14,1,14,0.00
2013-10-24,50.6,46.3,40.8,39.8,34.4,27.1,80,63,46,30.41,30.13,14,1,14,0.00
2013-10-25,48.7,40.5,32.1,32.2,28.6,25.8,89,64,42,30.56,30.34,10,1,10,0.00
2013-10-26,58.6,46.5,34.2,45.6,36.8,27.9,82,70,53,30.34,30.07,10,0,10,0.00
2013-10-27,62.1,54.0,44.8,54.8,45.3,39.0,91,73,51,30.14,30.04,6,0,7,0.00
2013-10-28,67.2,59.2,53.4,56.1,53.9,51.3,94,84,62,30.25,30.07,4,0,4,0.00
2013-10-29,63.2,58.5,53.4,61.7,56.5,52.0,97,93,87,30.28,30.11,8,0,8,0.00
2013-10-30,77.2,68.3,62.7,66.6,63.0,60.2,96,84,68,30.14,29.97,15,1,16,0.00
2013-10-31,69.9,65.6,57.8,66.5,62.3,56.4,95,89,77,29.97,29.47,31,3,31,0.00
2013-11-1,69.0,57.1,49.9,56.4,49.5,45.4,97,78,46,29.85,29.65,12,0,14,0.00
2013-11-2,60.4,50.0,43.0,47.4,43.1,38.8,93,78,57,30.20,29.85,10,0,14,0.00
2013-11-3,57.4,48.3,39.0,42.7,38.8,34.4,95,72,44,30.35,30.19,12,1,12,0.00
2013-11-4,61.8,54.7,47.7,49.5,44.0,40.1,80,68,51,30.33,30.23,14,1,14,0.00
2013-11-5,66.3,59.3,54.1,53.6,47.0,42.8,80,64,52,30.35,30.15,12,1,12,0.00
2013-11-6,60.2,55.4,44.0,58.3,50.1,40.1,95,83,64,30.23,30.00,21,2,21,0.00
2013-11-7,51.4,44.1,37.7,40.2,33.3,27.8,89,67,41,30.40,30.23,10,1,13,0.00
2013-11-8,56.2,46.7,37.7,42.0,35.2,29.7,96,67,37,30.43,30.23,7,1,7,0.00
2013-11-9,64.3,48.8,41.1,40.7,37.4,33.8,81,66,41,30.27,30.15,19,1,20,0.00
2013-11-10,59.7,50.2,42.3,44.6,37.1,29.2,95,64,34,30.40,30.25,9,1,9,0.00
2013-11-11,63.2,52.6,41.7,45.5,37.6,31.7,86,59,36,30.33,30.16,16,1,16,0.00
2013-11-12,47.9,37.3,30.8,42.6,29.0,22.9,91,73,51,30.71,30.29,19,6,19,0.00
2013-11-13,42.4,34.7,27.4,26.6,22.5,19.3,84,63,46,30.76,30.46,10,1,11,0.00
2013-11-14,56.0,42.3,26.9,25.2,21.2,17.8,79,46,23,30.46,30.19,15,1,15,0.00
2013-11-15,52.6,47.1,41.0,50.0,37.8,21.7,92,71,45,30.21,30.07,12,1,12,0.00
2013-11-16,65.9,59.0,52.6,62.0,55.9,50.0,93,90,85,30.08,29.83,18,3,19,0.00
2013-11-17,74.2,66.1,55.1,68.5,59.1,33.6,95,80,41,29.95,29.57,25,4,27,0.00
2013-11-18,60.4,50.7,43.7,41.9,33.4,30.1,77,52,35,30.29,29.95,9,0,9,0.00
2013-11-19,48.2,43.4,39.2,33.4,30.8,28.2,74,61,49,30.36,30.24,16,3,16,0.00
2013-11-20,58.4,47.1,35.9,43.4,35.2,30.2,83,65,42,30.26,30.13,13,3,13,0.00
2013-11-21,62.3,55.6,50.2,55.5,48.2,37.8,95,77,57,30.26,30.17,14,2,14,0.00
2013-11-22,58.6,50.4,42.2,56.6,48.0,37.9,96,91,84,30.44,30.17,18,3,18,0.00
2013-11-23,44.7,37.0,25.5,38.6,26.9,14.5,90,69,30,30.68,30.42,22,6,24,0.00
2013-11-24,32.1,27.0,21.2,19.1,16.1,13.9,80,64,48,30.77,30.53,16,5,16,0.00
2013-11-25,40.5,34.0,29.4,32.4,23.6,16.2,92,67,45,30.53,30.23,12,2,12,0.00
2013-11-26,38.4,36.0,32.3,34.2,31.2,21.8,93,83,66,30.24,30.02,20,3,21,0.00
2013-11-27,32.3,25.9,21.3,24.3,12.4,8.9,72,57,42,30.42,30.14,20,2,20,0.00
2013-11-28,42.7,29.5,20.3,21.3,14.5,9.7,72,54,38,30.49,30.35,13,2,16,0.00
2013-11-29,49.7,42.6,34.3,34.5,31.0,27.9,89,64,44,30.61,30.46,9,1,9,0.00
2013-11-30,56.4,45.2,33.6,32.7,27.8,24.3,79,53,29,30.46,30.21,15,2,16,0.00
2013-12-1,54.0,48.9,43.4,40.7,35.7,28.5,78,61,49,30.21,29.94,7,1,7,0.00
2013-12-2,56.7,50.5,45.9,48.5,44.3,39.5,91,79,72,29.93,29.73,6,1,8,0.00
2013-12-3,60.5,54.1,47.9,52.9,50.5,46.0,97,88,72,29.80,29.71,9,1,10,0.00
2013-12-4,73.8,64.8,52.8,62.2,59.0,51.4,97,83,62,29.80,29.66,19,2,19,0.00
2013-12-5,68.2,43.9,31.1,63.2,40.1,28.9,93,87,79,30.24,29.78,17,4,18,0.00
2013-12-6,32.0,27.2,23.0,30.2,25.2,20.0,94,92,88,30.53,30.16,16,5,16,0.00
2013-12-7,25.4,21.4,17.1,20.9,17.8,13.0,91,86,82,30.69,30.44,16,5,17,0.00
2013-12-8,33.2,29.9,23.0,31.9,28.2,20.2,96,94,90,30.44,30.08,12,2,12,0.00
2013-12-9,31.5,29.4,26.1,30.1,25.3,18.8,95,85,72,30.35,30.17,14,2,14,0.00
2013-12-10,35.4,27.9,22.0,23.5,21.3,18.6,89,77,60,30.45,30.27,11,1,11,0.00
2013-12-11,40.3,30.2,22.6,30.1,24.2,17.0,93,79,59,30.67,30.44,15,2,16,0.00
2013-12-12,31.4,23.9,16.6,18.1,14.5,9.9,79,68,52,30.69,30.43,12,1,12,0.00
2013-12-13,41.1,34.0,23.1,33.8,23.3,15.9,85,65,49,30.44,30.02,11,2,11,0.00
2013-12-14,40.4,36.9,32.2,39.4,34.5,29.5,96,91,85,30.13,29.83,17,2,17,0.00
2013-12-15,32.2,30.9,29.1,29.5,26.8,24.8,92,85,79,30.29,30.13,14,1,14,0.00
2013-12-16,53.4,42.1,30.1,38.5,34.2,28.0,92,75,53,30.21,30.09,12,1,12,0.00
2013-12-17,45.4,38.5,32.1,37.8,31.8,25.0,91,77,60,30.33,30.11,8,0,8,0.00
2013-12-18,49.7,40.3,28.6,30.9,26.0,20.4,87,59,34,30.39,30.13,16,2,17,0.00
2013-12-19,60.7,52.2,42.3,49.4,42.1,30.8,79,69,54,30.17,29.96,21,4,23,0.00
2013-12-20,64.4,60.9,56.2,61.5,56.3,49.3,94,85,71,29.96,29.82,20,4,22,0.00
2013-12-21,70.0,62.1,46.9,64.3,59.8,45.8,98,92,76,29.83,29.47,24,3,24,0.00
2013-12-22,51.1,43.7,34.5,48.1,41.7,31.3,97,93,85,30.24,29.61,14,1,14,0.00
2013-12-23,34.9,31.7,27.4,32.1,25.7,20.7,91,78,69,30.54,30.24,11,2,12,0.00
2013-12-24,27.5,23.4,17.6,21.7,14.4,8.5,82,69,55,30.69,30.48,14,3,15,0.00
2013-12-25,43.7,32.6,21.2,28.4,21.6,14.2,85,65,48,30.49,30.33,12,2,13,0.00
2013-12-26,42.1,34.9,28.2,31.3,28.0,25.4,92,77,60,30.49,30.35,9,0,9,0.00
2013-12-27,52.2,39.1,28.0,37.1,30.1,24.1,86,71,51,30.51,30.38,9,1,9,0.00
2013-12-28,46.4,40.5,33.2,37.4,32.0,27.4,91,72,57,30.39,30.02,8,1,8,0.00
2013-12-29,51.2,39.2,28.4,42.7,35.1,22.6,96,85,68,30.25,29.96,17,2,17,0.00
2013-12-30,30.0,26.2,22.0,22.9,18.8,14.6,85,74,62,30.37,30.24,11,1,11,0.00
2013-12-31,41.6,30.6,19.6,26.3,22.0,15.8,90,71,47,30.51,30.34,7,1,7,0.00
2014-1-1,47.6,39.0,28.9,36.8,30.1,25.5,90,72,51,30.35,29.99,14,2,14,0.00
2014-1-2,42.2,27.6,17.9,38.6,22.3,11.9,92,80,68,30.50,29.92,19,3,21,0.00